sat.trackr.live / text

‹ back to catalog

STARLINK-31325

NORAD 59165 · 2024-044P

PAYLOAD ACTIVE UNKNOWN

§ Identity

Operator
Country
US
Launch date
2024-03-04
Launch site
AFETR
Launch vehicle
Mass (kg)
RCS (m²)

Purposes: comms

External: N2YO · Heavens-Above · Gunter

§ Orbital elements

Epoch: 2026-05-24T23:22:32.507904Z

Period
94.27 min
Inclination
43.0035°
Eccentricity
0.0001204
Mean motion
15.27581594 rev/d
Perigee alt
482.2 km
Apogee alt
483.9 km
Semi-major
6,861.2 km
B*
-1.1391e-5
RAAN
36.0974°
Arg perigee
265.5661°
Mean anomaly
94.5053°
Rev number
12,523

§ Raw data

STARLINK-313251 59165U 24044P   26144.97398736 -.00000576  00000+0 -11391-4 0  99972 59165  43.0035  36.0974 0001204 265.5661  94.5053 15.27581594125236

JSON: /api/v1/satellites/59165 · /tle

For live sub-satellite position, see the globe view (requires WebGL).

§ Visibility from observer

Set your observer location to see the next 7 days of passes ≥ 10°. The values pass through the URL so the page stays shareable.

No JS? Fill the form by hand. The geolocation button needs JavaScript.